UAL1216 KIAH-KOMA

Flight info

Callsign UAL1216
Flight time 1h 47m
Altitude 40000
Route STYCK8 WTSON BYP EMP HTHWY TIMMO1
Aircraft B737/M-SDE2E3FGHIRWXY/LB1

Departure

Time 2026-04-25 05:52
Airport George Bush Intercontinental Airport (KIAH)

Arrival

Time 2026-04-25 07:40
Airport Eppley Airfield (KOMA)
Time Latitude Longitude Altitude Speed Heading
2026-04-25 05:18 29.98856 -95.34198 105 ft 0 kts 118°
2026-04-25 05:42 29.98861 -95.34209 106 ft 4 kts 118°
2026-04-25 05:42 29.98872 -95.34231 106 ft 4 kts 123°
2026-04-25 05:42 29.98890 -95.34246 105 ft 4 kts 174°
2026-04-25 05:43 29.98915 -95.34252 106 ft 4 kts 138°
2026-04-25 05:43 29.98929 -95.34272 106 ft 4 kts 88°
2026-04-25 05:43 29.98920 -95.34285 106 ft 4 kts
2026-04-25 05:43 29.98898 -95.34285 106 ft 0 kts 360°
2026-04-25 05:46 29.98904 -95.34285 105 ft 2 kts 360°
2026-04-25 05:46 29.98934 -95.34286 106 ft 6 kts 360°
2026-04-25 05:46 29.98989 -95.34286 105 ft 10 kts 360°
2026-04-25 05:47 29.99055 -95.34307 106 ft 12 kts 307°
2026-04-25 05:47 29.99085 -95.34405 106 ft 14 kts 274°
2026-04-25 05:47 29.99085 -95.34530 106 ft 17 kts 269°
2026-04-25 05:47 29.99085 -95.34674 106 ft 19 kts 270°
2026-04-25 05:48 29.99084 -95.34833 106 ft 21 kts 271°
2026-04-25 05:48 29.99090 -95.35006 106 ft 22 kts 272°
2026-04-25 05:48 29.99090 -95.35191 106 ft 24 kts 271°
2026-04-25 05:48 29.99088 -95.35388 106 ft 25 kts 270°
2026-04-25 05:49 29.99082 -95.35592 106 ft 25 kts 272°
2026-04-25 05:49 29.99097 -95.35785 106 ft 23 kts 274°
2026-04-25 05:49 29.99074 -95.35962 105 ft 22 kts 244°
2026-04-25 05:49 29.98956 -95.36016 106 ft 22 kts 152°
2026-04-25 05:50 29.98838 -95.35995 105 ft 14 kts 227°
2026-04-25 05:50 29.98815 -95.36043 105 ft 0 kts 242°
2026-04-25 05:51 29.98803 -95.36068 107 ft 6 kts 242°
2026-04-25 05:51 29.98779 -95.36114 106 ft 8 kts 235°
2026-04-25 05:51 29.98728 -95.36108 105 ft 9 kts 153°
2026-04-25 05:51 29.98620 -95.36042 108 ft 42 kts 152°
2026-04-25 05:52 29.98350 -95.35877 106 ft 90 kts 152°
2026-04-25 05:52 29.97289 -95.35221 148 ft 160 kts 153°
2026-04-25 05:52 29.96336 -95.34629 841 ft 154 kts 155°
2026-04-25 05:52 29.95382 -95.34083 1598 ft 155 kts 159°
2026-04-25 05:53 29.94336 -95.33533 2060 ft 180 kts 159°
2026-04-25 05:53 29.93065 -95.33004 2361 ft 205 kts 175°
2026-04-25 05:53 29.91602 -95.33212 2766 ft 222 kts 203°
2026-04-25 05:53 29.90271 -95.34264 3152 ft 248 kts 226°
2026-04-25 05:54 29.89609 -95.35384 3677 ft 253 kts 244°
2026-04-25 05:54 29.89250 -95.37406 4395 ft 268 kts 274°
2026-04-25 05:54 29.91461 -95.40640 6180 ft 274 kts 342°
2026-04-25 05:55 29.93340 -95.40908 7100 ft 275 kts 359°
2026-04-25 05:55 29.95291 -95.40835 7845 ft 285 kts
2026-04-25 05:55 29.97297 -95.40718 8687 ft 292 kts
2026-04-25 05:55 29.99340 -95.40617 9619 ft 297 kts 359°
2026-04-25 05:56 30.01422 -95.40543 10462 ft 304 kts 358°
2026-04-25 05:56 30.03624 -95.40490 10784 ft 331 kts 358°
2026-04-25 05:56 30.05991 -95.40443 11313 ft 346 kts 358°
2026-04-25 05:56 30.08417 -95.40499 12115 ft 350 kts 349°
2026-04-25 05:57 30.10790 -95.41097 13014 ft 349 kts 338°
2026-04-25 05:57 30.12607 -95.41970 13718 ft 350 kts 331°
2026-04-25 05:57 30.14523 -95.43053 14426 ft 353 kts 329°
2026-04-25 05:58 30.16723 -95.44336 15341 ft 355 kts 329°
2026-04-25 05:58 30.18936 -95.45622 16292 ft 356 kts 329°
2026-04-25 05:58 30.21169 -95.46903 17199 ft 360 kts 329°
2026-04-25 05:58 30.23134 -95.48017 17970 ft 363 kts 330°
2026-04-25 05:59 30.25413 -95.49303 18757 ft 366 kts 330°
2026-04-25 05:59 30.27710 -95.50597 19543 ft 369 kts 330°
2026-04-25 05:59 30.30024 -95.51901 20352 ft 371 kts 330°
2026-04-25 05:59 30.32351 -95.53213 21131 ft 373 kts 330°
2026-04-25 06:00 30.34699 -95.54539 21867 ft 377 kts 330°
2026-04-25 06:00 30.37065 -95.55877 22583 ft 380 kts 330°
2026-04-25 06:00 30.39453 -95.57227 23300 ft 383 kts 330°
2026-04-25 06:00 30.41860 -95.58589 23905 ft 386 kts 330°
2026-04-25 06:01 30.44284 -95.59960 24517 ft 389 kts 329°
2026-04-25 06:01 30.46719 -95.61339 25116 ft 391 kts 329°
2026-04-25 06:01 30.49172 -95.62728 25685 ft 393 kts 329°
2026-04-25 06:01 30.51643 -95.64129 26234 ft 396 kts 329°
2026-04-25 06:02 30.54124 -95.65532 26810 ft 398 kts 329°
2026-04-25 06:02 30.56642 -95.66903 27360 ft 402 kts 330°
2026-04-25 06:02 30.59191 -95.68260 27896 ft 405 kts 330°
2026-04-25 06:02 30.61762 -95.69620 28481 ft 407 kts 330°
2026-04-25 06:03 30.64350 -95.70990 29014 ft 410 kts 330°
2026-04-25 06:03 30.66955 -95.72374 29486 ft 413 kts 330°
2026-04-25 06:03 30.69575 -95.73771 29936 ft 416 kts 330°
2026-04-25 06:03 30.72209 -95.75178 30360 ft 418 kts 329°
2026-04-25 06:04 30.74822 -95.76576 30786 ft 419 kts 329°
2026-04-25 06:04 30.77474 -95.77996 31206 ft 420 kts 329°
2026-04-25 06:04 30.80129 -95.79418 31726 ft 419 kts 329°
2026-04-25 06:04 30.82758 -95.80827 32347 ft 414 kts 329°
2026-04-25 06:05 30.85370 -95.82227 32934 ft 412 kts 329°
2026-04-25 06:05 30.87969 -95.83623 33407 ft 411 kts 329°
2026-04-25 06:05 30.90558 -95.85016 33860 ft 410 kts 328°
2026-04-25 06:05 30.93142 -95.86406 34282 ft 408 kts 328°
2026-04-25 06:06 30.95713 -95.87789 34692 ft 406 kts 328°
2026-04-25 06:06 30.98273 -95.89169 35045 ft 406 kts 328°
2026-04-25 06:06 31.00832 -95.90548 35407 ft 405 kts 328°
2026-04-25 06:06 31.03380 -95.91923 35811 ft 403 kts 328°
2026-04-25 06:07 31.05920 -95.93293 36178 ft 401 kts 328°
2026-04-25 06:07 31.08452 -95.94659 36518 ft 401 kts 327°
2026-04-25 06:07 31.10982 -95.96014 36907 ft 401 kts 329°
2026-04-25 06:07 31.13635 -95.97117 37131 ft 411 kts 337°
2026-04-25 06:08 31.16460 -95.97817 37403 ft 416 kts 340°
2026-04-25 06:08 31.19302 -95.98444 37770 ft 414 kts 340°
2026-04-25 06:08 31.22134 -95.99055 38129 ft 413 kts 340°
2026-04-25 06:08 31.24957 -95.99669 38429 ft 412 kts 340°
2026-04-25 06:09 31.27779 -96.00291 38650 ft 413 kts 340°
2026-04-25 06:09 31.30600 -96.00921 38880 ft 412 kts 340°
2026-04-25 06:09 31.33414 -96.01554 39109 ft 412 kts 340°
2026-04-25 06:09 31.36187 -96.02182 39332 ft 411 kts 340°
2026-04-25 06:10 31.38997 -96.02820 39553 ft 412 kts 340°
2026-04-25 06:10 31.41819 -96.03464 39665 ft 414 kts 340°
2026-04-25 06:10 31.47500 -96.04759 39782 ft 416 kts 340°
2026-04-25 06:11 31.53171 -96.06049 39790 ft 414 kts 340°
2026-04-25 06:11 31.58810 -96.07333 39794 ft 412 kts 340°
2026-04-25 06:12 31.64424 -96.08615 39796 ft 410 kts 340°
2026-04-25 06:12 31.70031 -96.09897 39793 ft 410 kts 340°
2026-04-25 06:13 31.75629 -96.11181 39786 ft 410 kts 340°
2026-04-25 06:14 31.84016 -96.13106 39793 ft 410 kts 340°
2026-04-25 06:14 31.89612 -96.14392 39807 ft 410 kts 340°
2026-04-25 06:15 31.95223 -96.15683 39817 ft 412 kts 340°
2026-04-25 06:15 32.00859 -96.16981 39815 ft 413 kts 340°
2026-04-25 06:16 32.06518 -96.18286 39811 ft 415 kts 340°
2026-04-25 06:16 32.12160 -96.19588 39811 ft 416 kts 340°
2026-04-25 06:17 32.17857 -96.20895 39809 ft 419 kts 342°
2026-04-25 06:17 32.23775 -96.21301 39816 ft 430 kts 351°
2026-04-25 06:18 32.29771 -96.21346 39804 ft 431 kts 351°
2026-04-25 06:18 32.35776 -96.21402 39793 ft 431 kts 351°
2026-04-25 06:19 32.41773 -96.21488 39799 ft 431 kts 350°
2026-04-25 06:19 32.47767 -96.21586 39819 ft 429 kts 351°
2026-04-25 06:20 32.53718 -96.21672 39804 ft 423 kts 351°
2026-04-25 06:20 32.59630 -96.21771 39838 ft 429 kts 350°
2026-04-25 06:21 32.65657 -96.21893 39841 ft 434 kts 351°
2026-04-25 06:21 32.71655 -96.21997 39829 ft 433 kts 351°
2026-04-25 06:22 32.77672 -96.22096 39844 ft 432 kts 351°
2026-04-25 06:22 32.83718 -96.22198 39837 ft 431 kts 351°
2026-04-25 06:23 32.89714 -96.22300 39831 ft 430 kts 351°
2026-04-25 06:23 32.95703 -96.22402 39829 ft 430 kts 351°
2026-04-25 06:24 33.01656 -96.22505 39855 ft 431 kts 351°
2026-04-25 06:24 33.07675 -96.22609 39844 ft 433 kts 351°
2026-04-25 06:25 33.13712 -96.22713 39831 ft 435 kts 351°
2026-04-25 06:25 33.19771 -96.22817 39833 ft 436 kts 351°
2026-04-25 06:26 33.25845 -96.22921 39832 ft 437 kts 351°
2026-04-25 06:26 33.31933 -96.23025 39831 ft 438 kts 351°
2026-04-25 06:27 33.38034 -96.23130 39830 ft 439 kts 351°
2026-04-25 06:27 33.44144 -96.23235 39828 ft 439 kts 351°
2026-04-25 06:28 33.50214 -96.23340 39827 ft 439 kts 351°
2026-04-25 06:28 33.56322 -96.23407 39834 ft 440 kts 352°
2026-04-25 06:29 33.62448 -96.23292 39828 ft 440 kts 353°
2026-04-25 06:29 33.68568 -96.23139 39821 ft 439 kts 352°
2026-04-25 06:30 33.74666 -96.23002 39821 ft 437 kts 352°
2026-04-25 06:30 33.80742 -96.22880 39902 ft 436 kts 352°
2026-04-25 06:31 33.86811 -96.22765 39875 ft 435 kts 352°
2026-04-25 06:31 33.92865 -96.22649 39867 ft 434 kts 352°
2026-04-25 06:32 33.98903 -96.22533 39868 ft 433 kts 352°
2026-04-25 06:32 34.04923 -96.22417 39858 ft 432 kts 352°
2026-04-25 06:33 34.10897 -96.22303 39856 ft 432 kts 352°
2026-04-25 06:33 34.16905 -96.22187 39844 ft 431 kts 352°
2026-04-25 06:34 34.22903 -96.22071 39831 ft 431 kts 352°
2026-04-25 06:34 34.28896 -96.21955 39830 ft 430 kts 352°
2026-04-25 06:35 34.34892 -96.21840 39837 ft 432 kts 352°
2026-04-25 06:35 34.40903 -96.21724 39840 ft 432 kts 352°
2026-04-25 06:36 34.46929 -96.21608 39833 ft 434 kts 352°
2026-04-25 06:36 34.52969 -96.21490 39836 ft 435 kts 352°
2026-04-25 06:37 34.59025 -96.21372 39863 ft 436 kts 352°
2026-04-25 06:37 34.65099 -96.21253 39851 ft 437 kts 352°
2026-04-25 06:38 34.71187 -96.21134 39837 ft 438 kts 352°
2026-04-25 06:38 34.77283 -96.21014 39841 ft 438 kts 352°
2026-04-25 06:39 34.83377 -96.20894 39847 ft 438 kts 352°
2026-04-25 06:39 34.89487 -96.20774 39856 ft 439 kts 352°
2026-04-25 06:40 34.95567 -96.20655 39854 ft 440 kts 352°
2026-04-25 06:40 35.01696 -96.20534 39846 ft 440 kts 352°
2026-04-25 06:41 35.06836 -96.20432 39845 ft 440 kts 352°
2026-04-25 06:41 35.12924 -96.20312 39856 ft 441 kts 352°
2026-04-25 06:42 35.19058 -96.20190 39856 ft 440 kts 352°
2026-04-25 06:42 35.25180 -96.20068 39845 ft 440 kts 352°
2026-04-25 06:43 35.31300 -96.19946 39862 ft 439 kts 352°
2026-04-25 06:43 35.37406 -96.19825 39868 ft 439 kts 352°
2026-04-25 06:44 35.43525 -96.19704 39875 ft 439 kts 352°
2026-04-25 06:44 35.49634 -96.19582 39880 ft 439 kts 352°
2026-04-25 06:45 35.55746 -96.19460 39875 ft 439 kts 352°
2026-04-25 06:45 35.61856 -96.19338 39905 ft 439 kts 352°
2026-04-25 06:46 35.67921 -96.19216 39885 ft 439 kts 352°
2026-04-25 06:46 35.74023 -96.19094 39889 ft 439 kts 352°
2026-04-25 06:47 35.80130 -96.18971 39884 ft 439 kts 352°
2026-04-25 06:47 35.86235 -96.18849 39880 ft 439 kts 352°
2026-04-25 06:48 35.92341 -96.18725 39884 ft 439 kts 352°
2026-04-25 06:48 35.98444 -96.18602 39883 ft 439 kts 352°
2026-04-25 06:49 36.04552 -96.18479 39881 ft 439 kts 352°
2026-04-25 06:49 36.10657 -96.18355 39905 ft 439 kts 352°
2026-04-25 06:50 36.16771 -96.18232 39888 ft 439 kts 352°
2026-04-25 06:50 36.22885 -96.18107 39884 ft 439 kts 352°
2026-04-25 06:51 36.29000 -96.17983 39883 ft 439 kts 352°
2026-04-25 06:51 36.35091 -96.18024 39890 ft 436 kts 350°
2026-04-25 06:52 36.41193 -96.17919 39884 ft 440 kts 353°
2026-04-25 06:52 36.47310 -96.17679 39873 ft 440 kts 353°
2026-04-25 06:53 36.53381 -96.17495 39871 ft 439 kts 352°
2026-04-25 06:53 36.59487 -96.17355 39910 ft 438 kts 352°
2026-04-25 06:54 36.65588 -96.17231 39900 ft 438 kts 352°
2026-04-25 06:54 36.71691 -96.17107 39899 ft 438 kts 352°
2026-04-25 06:55 36.77794 -96.16983 39903 ft 438 kts 352°
2026-04-25 06:55 36.83897 -96.16857 39933 ft 438 kts 353°
2026-04-25 06:56 36.89999 -96.16731 39906 ft 438 kts 353°
2026-04-25 06:56 36.96100 -96.16604 39893 ft 438 kts 353°
2026-04-25 06:57 37.02197 -96.16478 39889 ft 438 kts 353°
2026-04-25 06:57 37.08297 -96.16352 39902 ft 438 kts 353°
2026-04-25 06:58 37.14354 -96.16226 39894 ft 438 kts 353°
2026-04-25 06:58 37.20462 -96.16098 39884 ft 438 kts 353°
2026-04-25 06:59 37.26558 -96.15972 39891 ft 438 kts 353°
2026-04-25 06:59 37.32653 -96.15844 39910 ft 438 kts 353°
2026-04-25 07:00 37.38762 -96.15717 39896 ft 439 kts 353°
2026-04-25 07:00 37.44878 -96.15588 39887 ft 440 kts 353°
2026-04-25 07:01 37.50997 -96.15460 39895 ft 440 kts 353°
2026-04-25 07:01 37.57125 -96.15331 39908 ft 441 kts 353°
2026-04-25 07:02 37.63266 -96.15202 39902 ft 441 kts 353°
2026-04-25 07:02 37.69409 -96.15072 39892 ft 442 kts 353°
2026-04-25 07:03 37.75559 -96.14942 39895 ft 442 kts 353°
2026-04-25 07:03 37.81715 -96.14812 39907 ft 443 kts 354°
2026-04-25 07:04 37.87883 -96.14681 39903 ft 443 kts 354°
2026-04-25 07:04 37.94055 -96.14549 39895 ft 444 kts 354°
2026-04-25 07:05 38.00225 -96.14418 39895 ft 443 kts 354°
2026-04-25 07:05 38.06393 -96.14286 39908 ft 443 kts 354°
2026-04-25 07:06 38.12561 -96.14155 39902 ft 443 kts 354°
2026-04-25 07:06 38.18690 -96.14023 39909 ft 443 kts 354°
2026-04-25 07:07 38.24859 -96.13891 39917 ft 443 kts 354°
2026-04-25 07:07 38.31020 -96.13786 39919 ft 442 kts 352°
2026-04-25 07:08 38.37152 -96.13976 39916 ft 440 kts 351°
2026-04-25 07:08 38.43269 -96.14251 39918 ft 440 kts 351°
2026-04-25 07:09 38.49385 -96.14500 39923 ft 440 kts 351°
2026-04-25 07:09 38.55518 -96.14725 39918 ft 441 kts 351°
2026-04-25 07:10 38.61663 -96.14940 39900 ft 442 kts 351°
2026-04-25 07:10 38.67807 -96.15155 39901 ft 442 kts 351°
2026-04-25 07:11 38.73956 -96.15370 39929 ft 442 kts 351°
2026-04-25 07:11 38.80112 -96.15587 39906 ft 443 kts 351°
2026-04-25 07:11 38.83210 -96.15699 39661 ft 447 kts 351°
2026-04-25 07:12 38.86316 -96.15808 39437 ft 445 kts 351°
2026-04-25 07:12 38.92434 -96.16021 38981 ft 442 kts 351°
2026-04-25 07:12 38.95511 -96.16130 38769 ft 442 kts 351°
2026-04-25 07:13 38.98583 -96.16239 38570 ft 442 kts 351°
2026-04-25 07:13 39.01653 -96.16348 38294 ft 442 kts 351°
2026-04-25 07:13 39.04727 -96.16458 38020 ft 441 kts 351°
2026-04-25 07:13 39.07789 -96.16567 37749 ft 441 kts 351°
2026-04-25 07:14 39.10856 -96.16676 37474 ft 440 kts 351°
2026-04-25 07:14 39.13919 -96.16785 37213 ft 440 kts 351°
2026-04-25 07:14 39.16975 -96.16894 36953 ft 439 kts 352°
2026-04-25 07:14 39.20031 -96.17003 36702 ft 439 kts 352°
2026-04-25 07:15 39.23076 -96.17111 36440 ft 438 kts 352°
2026-04-25 07:15 39.26119 -96.17220 36192 ft 437 kts 352°
2026-04-25 07:15 39.29152 -96.17328 35940 ft 435 kts 352°
2026-04-25 07:15 39.32175 -96.17435 35689 ft 434 kts 352°
2026-04-25 07:16 39.35186 -96.17543 35439 ft 432 kts 352°
2026-04-25 07:16 39.38184 -96.17649 35138 ft 428 kts 352°
2026-04-25 07:16 39.41142 -96.17753 34701 ft 422 kts 352°
2026-04-25 07:16 39.44063 -96.17856 34279 ft 418 kts 352°
2026-04-25 07:17 39.46955 -96.17959 33813 ft 413 kts 352°
2026-04-25 07:17 39.49815 -96.18061 33301 ft 409 kts 352°
2026-04-25 07:17 39.52642 -96.18162 32871 ft 403 kts 352°
2026-04-25 07:17 39.55429 -96.18262 32437 ft 398 kts 352°
2026-04-25 07:18 39.58182 -96.18362 32000 ft 394 kts 352°
2026-04-25 07:18 39.60869 -96.18459 31588 ft 389 kts 352°
2026-04-25 07:18 39.63562 -96.18557 31159 ft 385 kts 352°
2026-04-25 07:18 39.66232 -96.18654 30760 ft 382 kts 352°
2026-04-25 07:19 39.68875 -96.18751 30347 ft 378 kts 352°
2026-04-25 07:19 39.71497 -96.18846 29932 ft 375 kts 352°
2026-04-25 07:19 39.74090 -96.18941 29475 ft 371 kts 352°
2026-04-25 07:19 39.76654 -96.19033 29045 ft 366 kts 352°
2026-04-25 07:20 39.79181 -96.19125 28623 ft 361 kts 352°
2026-04-25 07:20 39.81683 -96.19216 28192 ft 357 kts 352°
2026-04-25 07:20 39.84156 -96.19306 27766 ft 354 kts 352°
2026-04-25 07:20 39.86607 -96.19396 27368 ft 351 kts 352°
2026-04-25 07:21 39.89038 -96.19486 26923 ft 349 kts 353°
2026-04-25 07:21 39.91454 -96.19575 26502 ft 346 kts 353°
2026-04-25 07:21 39.93859 -96.19663 26083 ft 345 kts 353°
2026-04-25 07:21 39.96250 -96.19751 25664 ft 343 kts 353°
2026-04-25 07:22 39.98625 -96.19838 25255 ft 341 kts 353°
2026-04-25 07:22 40.00991 -96.19925 24845 ft 339 kts 353°
2026-04-25 07:22 40.03359 -96.20013 24448 ft 342 kts 353°
2026-04-25 07:22 40.05747 -96.20102 24041 ft 346 kts 354°
2026-04-25 07:23 40.08180 -96.20193 23605 ft 353 kts 354°
2026-04-25 07:23 40.10651 -96.20284 23099 ft 358 kts 354°
2026-04-25 07:23 40.13138 -96.20373 22607 ft 356 kts 354°
2026-04-25 07:23 40.15600 -96.20461 22163 ft 352 kts 354°
2026-04-25 07:24 40.18037 -96.20549 21716 ft 349 kts 354°
2026-04-25 07:24 40.20457 -96.20596 21274 ft 347 kts 358°
2026-04-25 07:24 40.22857 -96.20335 20875 ft 345 kts
2026-04-25 07:24 40.25237 -96.19955 20436 ft 344 kts
2026-04-25 07:25 40.27602 -96.19552 20006 ft 341 kts
2026-04-25 07:25 40.29920 -96.19162 19587 ft 339 kts
2026-04-25 07:25 40.32256 -96.18782 19170 ft 338 kts
2026-04-25 07:25 40.34583 -96.18413 18747 ft 336 kts
2026-04-25 07:26 40.36903 -96.18051 18327 ft 335 kts
2026-04-25 07:26 40.39218 -96.17693 17862 ft 334 kts
2026-04-25 07:26 40.41523 -96.17338 17403 ft 332 kts
2026-04-25 07:26 40.43815 -96.16986 16966 ft 330 kts
2026-04-25 07:27 40.46084 -96.16637 16545 ft 328 kts
2026-04-25 07:27 40.48342 -96.16289 16124 ft 325 kts
2026-04-25 07:27 40.50583 -96.15944 15715 ft 323 kts
2026-04-25 07:27 40.52810 -96.15602 15307 ft 321 kts
2026-04-25 07:28 40.55022 -96.15310 14903 ft 319 kts
2026-04-25 07:28 40.57225 -96.15047 14495 ft 317 kts
2026-04-25 07:28 40.59420 -96.14786 14083 ft 316 kts
2026-04-25 07:28 40.61600 -96.14523 13684 ft 314 kts
2026-04-25 07:29 40.63773 -96.14256 13233 ft 313 kts
2026-04-25 07:29 40.65931 -96.13989 12834 ft 310 kts
2026-04-25 07:29 40.68068 -96.13693 12578 ft 307 kts
2026-04-25 07:29 40.70189 -96.13380 12305 ft 306 kts
2026-04-25 07:30 40.72294 -96.13067 11935 ft 303 kts
2026-04-25 07:30 40.73682 -96.12862 11666 ft 302 kts
2026-04-25 07:30 40.75765 -96.12554 11269 ft 300 kts
2026-04-25 07:30 40.77840 -96.12249 10851 ft 300 kts
2026-04-25 07:31 40.80581 -96.11847 10303 ft 299 kts
2026-04-25 07:31 40.81969 -96.11643 10150 ft 294 kts
2026-04-25 07:31 40.83971 -96.11349 9940 ft 286 kts
2026-04-25 07:31 40.85948 -96.11059 9537 ft 286 kts
2026-04-25 07:32 40.87921 -96.10771 9153 ft 284 kts
2026-04-25 07:32 40.90472 -96.10076 8620 ft 285 kts 27°
2026-04-25 07:32 40.91595 -96.09182 8383 ft 284 kts 34°
2026-04-25 07:32 40.93235 -96.07728 7980 ft 284 kts 35°
2026-04-25 07:33 40.94867 -96.06257 7617 ft 282 kts 36°
2026-04-25 07:33 40.96487 -96.04795 7255 ft 281 kts 36°
2026-04-25 07:33 40.98106 -96.03341 6895 ft 281 kts 37°
2026-04-25 07:33 40.99720 -96.01897 6542 ft 280 kts 37°
2026-04-25 07:34 41.01333 -96.00456 6171 ft 279 kts 38°
2026-04-25 07:34 41.02942 -95.99021 5796 ft 279 kts 38°
2026-04-25 07:34 41.04547 -95.97589 5431 ft 278 kts 38°
2026-04-25 07:34 41.06148 -95.96162 5066 ft 276 kts 38°
2026-04-25 07:35 41.07739 -95.94744 4711 ft 275 kts 39°
2026-04-25 07:35 41.09321 -95.93334 4345 ft 273 kts 38°
2026-04-25 07:35 41.10879 -95.91947 4189 ft 264 kts 39°
2026-04-25 07:35 41.12373 -95.90617 4066 ft 253 kts 39°
2026-04-25 07:36 41.13777 -95.89378 3920 ft 240 kts 36°
2026-04-25 07:36 41.15217 -95.88312 3666 ft 233 kts 32°
2026-04-25 07:36 41.16622 -95.87337 3439 ft 220 kts 32°
2026-04-25 07:36 41.17921 -95.86432 3227 ft 202 kts 33°
2026-04-25 07:37 41.19115 -95.85593 3016 ft 187 kts 33°
2026-04-25 07:37 41.20222 -95.84811 2836 ft 173 kts 33°
2026-04-25 07:37 41.21250 -95.84103 2653 ft 162 kts 29°
2026-04-25 07:37 41.22304 -95.83699 2555 ft 152 kts 11°
2026-04-25 07:38 41.23344 -95.83727 2355 ft 148 kts 354°
2026-04-25 07:38 41.24322 -95.84091 2192 ft 147 kts 336°
2026-04-25 07:38 41.25179 -95.84830 2047 ft 144 kts 323°
2026-04-25 07:38 41.25974 -95.85622 1907 ft 143 kts 327°
2026-04-25 07:39 41.26801 -95.86324 1732 ft 138 kts 329°
2026-04-25 07:39 41.27589 -95.87011 1509 ft 134 kts 324°
2026-04-25 07:39 41.28330 -95.87733 1281 ft 130 kts 324°
2026-04-25 07:39 41.29060 -95.88417 1053 ft 125 kts 324°
2026-04-25 07:40 41.29725 -95.89036 984 ft 96 kts 325°
2026-04-25 07:40 41.30092 -95.89384 986 ft 34 kts 325°
2026-04-25 07:40 41.30245 -95.89528 983 ft 12 kts 324°
2026-04-25 07:40 41.30286 -95.89594 989 ft 8 kts 246°
2026-04-25 07:41 41.30230 -95.89605 988 ft 8 kts 177°
2026-04-25 07:41 41.30165 -95.89605 987 ft 8 kts 179°
2026-04-25 07:41 41.30155 -95.89604 983 ft 0 kts 179°
2026-04-25 07:42 41.30153 -95.89610 983 ft 1 kts 241°
2026-04-25 07:42 41.30167 -95.89633 993 ft 6 kts 317°
2026-04-25 07:42 41.30208 -95.89672 988 ft 8 kts 325°
2026-04-25 07:42 41.30261 -95.89726 986 ft 11 kts 324°
2026-04-25 07:43 41.30314 -95.89805 989 ft 12 kts 269°
2026-04-25 07:43 41.30274 -95.89904 985 ft 12 kts 234°
2026-04-25 07:43 41.30232 -95.89975 988 ft 0 kts 221°
2026-04-25 07:43 41.30222 -95.89982 987 ft 6 kts 206°
2026-04-25 07:44 41.30172 -95.89974 984 ft 8 kts 137°
2026-04-25 07:44 41.30149 -95.89933 984 ft 1 kts 126°
2026-04-25 07:44 41.30148 -95.89931 984 ft 0 kts 127°
2026-04-25 07:44 41.30148 -95.89930 984 ft 0 kts 127°